Location: Bucquoy
(50.1391°N, 2.7097°E)
Time: 09:20:47
(UTC+00:00)

Cosmos 1953 - Pass Details

Date: 06 May 2021
Orbit: 540 x 555 km, 82.5° (Epoch: 21 June)

Event Time Altitude Azimuth Distance (km) Brightness Sun altitude
Rises 02:15:11 0° 353° (N) 2,712 6.6 -15.6°
Reaches altitude 10° 02:17:24 10° 358° (N) 1,815 5.7 -15.4°
Maximum altitude 02:21:18 53° 76° (ENE) 673 3.0 -15.0°
Drops below altitude 10° 02:25:12 10° 154° (SSE) 1,804 4.7 -14.6°
Enters shadow 02:26:20 - 158° (SSE) 2,266 5.2 -14.5°
